This is the latest recevied weather packets stored in our database for station/object K9RJT. If no packets are shown the sender has not sent any weather packets the latest 10 day(s).
| Time | Temp. | Humidity | Pressure | Rain* | Wind** | Luminosity | Snow |
|---|---|---|---|---|---|---|---|
| 1778034678 | 23.89° C | 33% | 1008.5 hPa | 0 mm | - | 25 W/m² | - |
| 1778034376 | 24.44° C | 33% | 1008.2 hPa | 0 mm | - | 30 W/m² | - |
| 1778034073 | 24.44° C | 33% | 1008.2 hPa | 0 mm | - | 34 W/m² | - |
| 1778033771 | 24.44° C | 32% | 1007.9 hPa | 0 mm | - | 37 W/m² | - |
| 1778033468 | 24.44° C | 33% | 1008 hPa | 0 mm | - | 36 W/m² | - |
| 1778033165 | 25° C | 32% | 1008.1 hPa | 0 mm | - | 33 W/m² | - |
| 1778032862 | 25° C | 33% | 1008 hPa | 0 mm | - | 44 W/m² | - |
| 1778032560 | 25° C | 32% | 1008.4 hPa | 0 mm | - | 46 W/m² | - |
| 1778032256 | 25.56° C | 33% | 1008 hPa | 0 mm | - | 47 W/m² | - |
| 1778031954 | 25.56° C | 32% | 1008 hPa | 0 mm | - | 48 W/m² | - |
| 1778031649 | 25.56° C | 32% | 1008 hPa | 0 mm | - | 53 W/m² | - |
| 1778031348 | 25.56° C | 32% | 1007.9 hPa | 0 mm | - | 59 W/m² | - |
| 1778031044 | 26.11° C | 31% | 1007.8 hPa | 0 mm | - | 60 W/m² | - |
| 1778030740 | 25.56° C | 31% | 1008 hPa | 0 mm | - | 71 W/m² | - |
| 1778030437 | 26.11° C | 30% | 1007.7 hPa | 0 mm | - | 78 W/m² | - |
| 1778030135 | 26.11° C | 31% | 1007.8 hPa | 0 mm | - | 94 W/m² | - |
| 1778029831 | 26.11° C | 30% | 1007.8 hPa | 0 mm | - | 108 W/m² | - |
| 1778029531 | 26.11° C | 30% | 1007.8 hPa | 0 mm | - | 134 W/m² | - |
| 1778029227 | 26.67° C | 30% | 1008 hPa | 0 mm | - | 146 W/m² | - |
| 1778028924 | 26.11° C | 31% | 1007.8 hPa | 0 mm | - | 155 W/m² | - |
| 1778028620 | 26.67° C | 31% | 1007.7 hPa | 0 mm | - | 171 W/m² | - |
| 1778028317 | 26.11° C | 32% | 1007.7 hPa | 0 mm | - | 189 W/m² | - |
| 1778028014 | 26.11° C | 30% | 1007.6 hPa | 0 mm | - | 208 W/m² | - |
| 1778027710 | 26.11° C | 31% | 1007.6 hPa | 0 mm | - | 217 W/m² | - |
| 1778027406 | 26.67° C | 30% | 1007.7 hPa | 0 mm | - | 121 W/m² | - |
* Rain latest hour (hover to see other rain measurements)
** Current wind speed in m/s (hover to see current wind gust speed)